Weather History for KIRK - November, 2013

Change the Weather History Date:

Saturday, November 2, 2013

  Actual Average Record
Temperature  
Mean Temperature 42 °F 47 °F  
Max Temperature 54 °F 57 °F 79 °F (1938)
Min Temperature 30 °F 37 °F 12 °F (1966)
Degree Days  
Heating Degree Days 23 18  
Month to date heating degree days 40 36  
Since 1 July heating degree days 503 525  
Cooling Degree Days 0 0  
Month to date cooling degree days 0 0  
Year to date cooling degree days 1028 939  
Moisture  
Dew Point 36 °F    
Average Humidity 67    
Maximum Humidity 92    
Minimum Humidity 41    
Precipitation  
Precipitation 0.00 in 0.12 in 1.37 in (1992)
Month to date precipitation T 0.24  
Year to date precipitation 35.29 35.08  
Sea Level Pressure  
Sea Level Pressure 30.08 in    
Wind  
Wind Speed 7 mph (NW)    
Max Wind Speed 17 mph    
Max Gust Speed 22 mph    
Visibility 10 miles    
Events      
T = Trace of Precipitation, MM = Missing Value Source: NWS Daily Summary

Daily Weather History Graph

Daily Weather History Graph

Search for Another Location

Airport or City:

Trip Planner

Search our weather history database for the weather conditions in past years. The results will help you decide how hot, cold, wet, or windy it might be!

Date:

Astronomy

Nov. 02, 2013 Rise Set
Actual Time 7:40 AM CDT 6:06 PM CDT
Civil Twilight 7:12 AM CDT 6:34 PM CDT
Nautical Twilight 6:40 AM CDT 7:06 PM CDT
Astronomical Twilight 6:08 AM CDT 7:37 PM CDT
Moon 6:38 AM CDT (11/2) 5:37 PM CDT (11/2)
Length of Visible Light 11h 21m
Length of Day
10h 25m
Waning Crescent, 1% of the Moon is Illuminated
Nov 2
Waning Crescent
Nov 3
New
Nov 9
First Quarter
Nov 17
Full
Nov 25
Last Quarter

Hourly Weather History & Observations

Time (CDT) Temp. Windchill Dew Point Humidity Pressure Visibility Wind Dir Wind Speed Gust Speed Precip Events Conditions
12:55 AM 45.0 °F 39.3 °F 37.9 °F 76% 29.90 in 10.0 mi WNW 11.5 mph 19.6 mph N/A   Mostly Cloudy
1:55 AM 43.0 °F 37.7 °F 37.9 °F 82% 29.92 in 10.0 mi WNW 9.2 mph - N/A   Partly Cloudy
2:55 AM 42.1 °F 35.7 °F 37.9 °F 85% 29.93 in 10.0 mi WNW 11.5 mph - N/A   Scattered Clouds
3:55 AM 43.0 °F 37.7 °F 39.0 °F 86% 29.94 in 10.0 mi WNW 9.2 mph - N/A   Overcast
4:55 AM 43.0 °F 38.2 °F 39.0 °F 86% 29.96 in 10.0 mi WNW 8.1 mph - N/A   Overcast
5:55 AM 43.0 °F 38.2 °F 39.0 °F 86% 29.99 in 10.0 mi NW 8.1 mph - N/A   Mostly Cloudy
6:02 AM 42.8 °F 38.0 °F 39.2 °F 87% 29.97 in 10.0 mi NW 8.1 mph - N/A   Mostly Cloudy
6:12 AM 42.8 °F 38.0 °F 39.2 °F 87% 29.98 in 10.0 mi WNW 8.1 mph - N/A   Mostly Cloudy
6:19 AM 42.8 °F 37.5 °F 39.2 °F 87% 29.99 in 10.0 mi WNW 9.2 mph - N/A   Overcast
6:55 AM 43.0 °F 38.8 °F 39.9 °F 89% 30.03 in 10.0 mi NW 6.9 mph - N/A   Overcast
7:42 AM 44.6 °F 40.2 °F 39.2 °F 81% 30.02 in 10.0 mi NW 8.1 mph - N/A   Overcast
7:55 AM 44.1 °F 38.6 °F 39.9 °F 85% 30.05 in 10.0 mi NW 10.4 mph - N/A   Overcast
8:55 AM 45.0 °F 40.1 °F 39.9 °F 82% 30.09 in 10.0 mi NW 9.2 mph - N/A   Clear
9:55 AM 46.9 °F - 37.9 °F 71% 30.11 in 10.0 mi NW 11.5 mph - N/A   Clear
10:55 AM 50.0 °F - 39.0 °F 66% 30.12 in 10.0 mi NW 11.5 mph - N/A   Scattered Clouds
11:55 AM 48.9 °F - 37.9 °F 66% 30.14 in 10.0 mi NW 9.2 mph - N/A   Mostly Cloudy
12:55 PM 51.1 °F - 35.1 °F 54% 30.14 in 10.0 mi NW 12.7 mph 20.7 mph N/A   Mostly Cloudy
1:55 PM 53.1 °F - 34.0 °F 48% 30.14 in 10.0 mi NW 10.4 mph 20.7 mph N/A   Mostly Cloudy
2:55 PM 51.1 °F - 32.0 °F 48% 30.14 in 10.0 mi NW 9.2 mph - N/A   Mostly Cloudy
3:55 PM 54.0 °F - 30.9 °F 41% 30.14 in 10.0 mi NW 10.4 mph - N/A   Scattered Clouds
4:55 PM 52.0 °F - 30.9 °F 45% 30.15 in 10.0 mi NNW 8.1 mph - N/A   Clear
5:55 PM 48.9 °F - 30.0 °F 48% 30.16 in 10.0 mi NW 4.6 mph - N/A   Clear
6:55 PM 39.9 °F 37.8 °F 30.9 °F 70% 30.19 in 10.0 mi WSW 3.5 mph - N/A   Clear
7:55 PM 36.0 °F - 30.9 °F 82% 30.20 in 10.0 mi Calm Calm - N/A   Clear
8:55 PM 34.0 °F - 30.0 °F 85% 30.19 in 10.0 mi Calm Calm - N/A   Clear
9:55 PM 33.1 °F - 30.0 °F 89% 30.20 in 10.0 mi Calm Calm - N/A   Clear
10:55 PM 30.9 °F - 28.9 °F 92% 30.21 in 10.0 mi Calm Calm - N/A   Clear
11:55 PM 30.0 °F 26.5 °F 28.9 °F 96% 30.21 in 10.0 mi SW 3.5 mph - N/A   Clear